FW9446 Weather Reports


Display with metric or nautical units.
time (UTC)temp
F
wind
direction
speed
MPH
gust
MPH
rain 1hr
in
rain 24hr
in
rain mn
in
humidity
%
barometer
mb
20260906205557 92 0 0.0 0.0 0.00 0.00 0.00 67 1009.9
20260906205056 93 0 0.0 0.0 0.00 0.00 0.00 67 1009.9
20260906204616 94 0 0.0 0.0 0.00 0.00 0.00 64 1010.1
20260906204057 95 0 0.0 0.0 0.00 0.00 0.00 61 1010.1
20260906203557 96 0 0.0 0.0 0.00 0.00 0.00 60 1010.2
20260906203100 96 0 0.0 0.0 0.00 0.00 0.00 58 1010.2
20260906202557 96 0 0.0 0.0 0.00 0.00 0.00 59 1010.2
20260906202057 95 0 0.0 0.0 0.00 0.00 0.00 53 1010.4
20260906201605 95 0 0.0 0.0 0.00 0.00 0.00 54 1010.5
20260906201056 95 0 0.0 0.0 0.00 0.00 0.00 56 1010.5
20260906200558 95 0 0.0 0.0 0.00 0.00 0.00 55 1010.8
20260906200104 95 0 0.0 0.0 0.00 0.00 0.00 58 1010.8
20260906195557 95 0 0.0 0.0 0.00 0.00 0.00 56 1010.9
20260906195058 94 0 0.0 0.0 0.00 0.00 0.00 58 1011.0
20260906194601 94 0 0.0 0.0 0.00 0.00 0.00 56 1011.0
20260906194059 95 0 0.0 0.0 0.00 0.00 0.00 55 1011.2
20260906193557 96 0 0.0 0.0 0.00 0.00 0.00 59 1011.2
20260906193103 96 0 0.0 0.0 0.00 0.00 0.00 54 1011.2
20260906192559 96 0 0.0 0.0 0.00 0.00 0.00 55 1011.3
20260906192057 96 0 0.0 0.0 0.00 0.00 0.00 54 1011.5
20260906191613 96 0 0.0 0.0 0.00 0.00 0.00 60 1011.5
20260906191057 96 0 0.0 0.0 0.00 0.00 0.00 55 1011.7
20260906190601 95 0 0.0 0.0 0.00 0.00 0.00 55 1011.8
20260906185559 95 0 0.0 0.0 0.00 0.00 0.00 60 1011.9
20260906185056 95 0 0.0 0.0 0.00 0.00 0.00 60 1012.0
20260906184605 95 0 0.0 0.0 0.00 0.00 0.00 61 1012.0
20260906184057 94 0 0.0 0.0 0.00 0.00 0.00 62 1012.1
20260906183558 94 0 0.0 0.0 0.00 0.00 0.00 63 1012.1
20260906183106 94 0 0.0 0.0 0.00 0.00 0.00 62 1012.1
20260906182557 94 0 0.0 0.0 0.00 0.00 0.00 61 1012.2
20260906182102 93 0 0.0 0.0 0.00 0.00 0.00 61 1012.3
20260906181606 93 0 0.0 0.0 0.00 0.00 0.00 65 1012.4
20260906181056 93 0 0.0 0.0 0.00 0.00 0.00 62 1012.3
20260906180558 93 0 0.0 0.0 0.00 0.00 0.00 65 1012.5
20260906180115 93 0 0.0 0.0 0.00 0.00 0.00 59 1012.6
20260906175559 93 0 0.0 0.0 0.00 0.00 0.00 64 1012.7
20260906175057 93 0 0.0 0.0 0.00 0.00 0.00 62 1012.7
20260906174605 92 0 0.0 0.0 0.00 0.00 0.00 65 1012.9
20260906174057 92 0 0.0 0.0 0.00 0.00 0.00 63 1012.9
20260906173557 92 0 0.0 0.0 0.00 0.00 0.00 66 1013.0
20260906173107 92 0 0.0 0.0 0.00 0.00 0.00 64 1013.0
20260906172557 92 0 0.0 0.0 0.00 0.00 0.00 59 1013.2
20260906172057 92 0 0.0 0.0 0.00 0.00 0.00 59 1013.3
20260906171605 92 0 0.0 0.0 0.00 0.00 0.00 60 1013.3
20260906171056 91 0 0.0 0.0 0.00 0.00 0.00 59 1013.4
20260906170556 91 0 0.0 0.0 0.00 0.00 0.00 62 1013.5
20260906170110 91 0 0.0 0.0 0.00 0.00 0.00 62 1013.6
20260906165558 90 0 0.0 0.0 0.00 0.00 0.00 64 1013.5
20260906165057 90 0 0.0 0.0 0.00 0.00 0.00 61 1013.7
20260906164607 90 0 0.0 0.0 0.00 0.00 0.00 68 1013.7
20260906164059 89 0 0.0 0.0 0.00 0.00 0.00 64 1013.6
20260906163557 90 0 0.0 0.0 0.00 0.00 0.00 68 1013.7
20260906163124 90 0 0.0 0.0 0.00 0.00 0.00 64 1013.7
20260906162557 90 0 0.0 0.0 0.00 0.00 0.00 69 1013.8
20260906162056 90 0 0.0 0.0 0.00 0.00 0.00 68 1013.9
20260906161612 89 0 0.0 0.0 0.00 0.00 0.00 62 1014.0
20260906161056 89 0 0.0 0.0 0.00 0.00 0.00 66 1014.1
20260906160556 89 0 0.0 0.0 0.00 0.00 0.00 68 1014.0
20260906160111 89 0 0.0 0.0 0.00 0.00 0.00 68 1014.0
20260906155556 88 0 0.0 0.0 0.00 0.00 0.00 65 1014.0
20260906155100 87 0 0.0 0.0 0.00 0.00 0.00 66 1014.1
20260906154609 87 0 0.0 0.0 0.00 0.00 0.00 74 1014.0
20260906154057 86 0 0.0 0.0 0.00 0.00 0.00 71 1014.0
20260906153600 85 0 0.0 0.0 0.00 0.00 0.00 71 1014.0
20260906153113 85 0 0.0 0.0 0.00 0.00 0.00 80 1014.1
20260906152600 84 0 0.0 0.0 0.00 0.00 0.00 79 1014.0
20260906152056 83 0 0.0 0.0 0.00 0.00 0.00 80 1014.0
20260906151609 83 0 0.0 0.0 0.00 0.00 0.00 80 1014.1
20260906151056 82 0 0.0 0.0 0.00 0.00 0.00 79 1014.0
20260906150557 81 0 0.0 0.0 0.00 0.00 0.00 88 1014.1
20260906150109 80 0 0.0 0.0 0.00 0.00 0.00 87 1014.0
20260906145559 80 0 0.0 0.0 0.00 0.00 0.00 88 1014.2
20260906145058 79 0 0.0 0.0 0.00 0.00 0.00 88 1014.1
20260906144602 79 0 0.0 0.0 0.00 0.00 0.00 89 1014.1
20260906144100 78 0 0.0 0.0 0.00 0.00 0.00 89 1014.1
20260906143556 78 0 0.0 0.0 0.00 0.00 0.00 89 1014.1
20260906143101 77 0 0.0 0.0 0.00 0.00 0.00 90 1014.0
20260906142556 77 0 0.0 0.0 0.00 0.00 0.00 91 1014.0
20260906142057 77 0 0.0 0.0 0.00 0.00 0.00 92 1014.1
20260906141600 76 0 0.0 0.0 0.00 0.00 0.00 93 1014.1
20260906141057 76 0 0.0 0.0 0.00 0.00 0.00 95 1014.1
20260906140557 75 0 0.0 0.0 0.00 0.00 0.00 96 1014.2
20260906140108 75 0 0.0 0.0 0.00 0.00 0.00 96 1014.2
20260906135557 75 0 0.0 0.0 0.00 0.00 0.00 96 1014.3
20260906135058 74 0 0.0 0.0 0.00 0.00 0.00 96 1014.2
20260906134600 74 0 0.0 0.0 0.00 0.00 0.00 97 1014.2
20260906134058 74 0 0.0 0.0 0.00 0.00 0.00 97 1014.3
20260906133559 74 0 0.0 0.0 0.00 0.00 0.00 98 1014.4
20260906133129 73 0 0.0 0.0 0.00 0.00 0.00 98 1014.5
20260906132557 73 0 0.0 0.0 0.00 0.00 0.00 98 1014.4
20260906132056 73 0 0.0 0.0 0.00 0.00 0.00 98 1014.5
20260906131618 73 0 0.0 0.0 0.00 0.00 0.00 98 1014.5
20260906131057 73 0 0.0 0.0 0.00 0.00 0.00 98 1014.5
20260906130559 73 0 0.0 0.0 0.00 0.00 0.00 98 1014.5
20260906130113 72 0 0.0 0.0 0.00 0.00 0.00 98 1014.5
20260906125602 72 0 0.0 0.0 0.00 0.00 0.00 98 1014.5
20260906125058 72 0 0.0 0.0 0.00 0.00 0.00 98 1014.5
20260906124602 72 0 0.0 0.0 0.00 0.00 0.00 98 1014.5
20260906124059 72 0 0.0 0.0 0.00 0.00 0.00 98 1014.5
20260906123556 72 0 0.0 0.0 0.00 0.00 0.00 98 1014.4
20260906123101 72 0 0.0 0.0 0.00 0.00 0.00 98 1014.3
20260906122558 72 0 0.0 0.0 0.00 0.00 0.00 98 1014.4
20260906122059 72 0 0.0 0.0 0.00 0.00 0.00 98 1014.3
20260906121617 72 0 0.0 0.0 0.00 0.00 0.00 98 1014.2
20260906121059 72 0 0.0 0.0 0.00 0.00 0.00 98 1014.2
20260906120559 72 0 0.0 0.0 0.00 0.00 0.00 98 1014.2
20260906120105 72 0 0.0 0.0 0.00 0.00 0.00 98 1014.0
20260906115559 72 0 0.0 0.0 0.00 0.00 0.00 98 1014.0
20260906115058 72 0 0.0 0.0 0.00 0.00 0.00 98 1013.9
20260906114605 72 0 0.0 0.0 0.00 0.00 0.00 98 1013.9
20260906114059 72 0 0.0 0.0 0.00 0.00 0.00 98 1013.9
20260906113558 72 0 0.0 0.0 0.00 0.00 0.00 98 1013.9
20260906113101 72 0 0.0 0.0 0.00 0.00 0.00 98 1013.8
20260906112558 72 0 0.0 0.0 0.00 0.00 0.00 98 1013.7
20260906112058 72 0 0.0 0.0 0.00 0.00 0.00 98 1013.5
20260906111606 72 0 0.0 0.0 0.00 0.00 0.00 97 1013.4
20260906111058 72 0 0.0 0.0 0.00 0.00 0.00 97 1013.4
20260906110559 72 0 0.0 0.0 0.00 0.00 0.00 97 1013.3
20260906105558 72 0 0.0 0.0 0.00 0.00 0.00 98 1013.4
20260906105102 72 0 0.0 0.0 0.00 0.00 0.00 97 1013.5
20260906104609 72 0 0.0 0.0 0.00 0.00 0.00 97 1013.4
20260906104058 72 0 0.0 0.0 0.00 0.00 0.00 97 1013.5
20260906103601 72 0 0.0 0.0 0.00 0.00 0.00 97 1013.4
20260906103103 72 0 0.0 0.0 0.00 0.00 0.00 97 1013.4
20260906102558 72 0 0.0 0.0 0.00 0.00 0.00 97 1013.3
20260906102058 72 0 0.0 0.0 0.00 0.00 0.00 97 1013.2
20260906101601 72 0 0.0 0.0 0.00 0.00 0.00 97 1013.2
20260906101058 73 0 0.0 0.0 0.00 0.00 0.00 97 1013.2
20260906100600 73 0 0.0 0.0 0.00 0.00 0.00 97 1013.2
20260906100112 73 0 0.0 0.0 0.00 0.00 0.00 97 1013.2
20260906095601 73 0 0.0 0.0 0.00 0.00 0.00 97 1013.2
20260906095058 73 0 0.0 0.0 0.00 0.00 0.00 97 1013.1
20260906094621 73 0 0.0 0.0 0.00 0.00 0.00 97 1013.1
20260906094059 73 0 0.0 0.0 0.00 0.00 0.00 97 1013.3
20260906093602 73 0 0.0 0.0 0.00 0.00 0.00 97 1013.3
20260906093104 73 0 0.0 0.0 0.00 0.00 0.00 97 1013.4
20260906092601 73 0 0.0 0.0 0.00 0.00 0.00 97 1013.6
20260906092059 73 0 0.0 0.0 0.00 0.00 0.00 97 1013.6
20260906091602 73 0 0.0 0.0 0.00 0.00 0.00 97 1013.6
20260906091100 73 0 0.0 0.0 0.00 0.00 0.00 97 1013.5
20260906090558 73 0 0.0 0.0 0.00 0.00 0.00 97 1013.7
20260906090113 72 0 0.0 0.0 0.00 0.00 0.00 97 1013.7
20260906085601 72 0 0.0 0.0 0.00 0.00 0.00 97 1013.7
20260906085102 72 0 0.0 0.0 0.00 0.00 0.00 97 1013.7
20260906084604 72 0 0.0 0.0 0.00 0.00 0.00 97 1013.9
20260906084058 72 0 0.0 0.0 0.00 0.00 0.00 97 1013.9
20260906083559 72 0 0.0 0.0 0.00 0.00 0.00 97 1013.9
20260906083104 72 0 0.0 0.0 0.00 0.00 0.00 97 1013.9
20260906082558 72 0 0.0 0.0 0.00 0.00 0.00 97 1013.8
20260906082059 72 0 0.0 0.0 0.00 0.00 0.00 97 1013.7
20260906081601 72 0 0.0 0.0 0.00 0.00 0.00 97 1013.6
20260906081100 72 0 0.0 0.0 0.00 0.00 0.00 97 1013.5
20260906080559 72 0 0.0 0.0 0.00 0.00 0.00 98 1013.4
20260906075558 72 0 0.0 0.0 0.00 0.00 0.00 98 1013.3
20260906075058 72 0 0.0 0.0 0.00 0.00 0.00 98 1013.3
20260906074610 72 0 0.0 0.0 0.00 0.00 0.00 98 1013.2
20260906074058 72 0 0.0 0.0 0.00 0.00 0.00 98 1013.2
20260906073601 72 0 0.0 0.0 0.00 0.00 0.00 98 1013.1
20260906073109 72 0 0.0 0.0 0.00 0.00 0.00 98 1013.1
20260906072558 72 0 0.0 0.0 0.00 0.00 0.00 98 1013.1
20260906072057 72 0 0.0 0.0 0.00 0.00 0.00 98 1013.1
20260906071603 72 0 0.0 0.0 0.00 0.00 0.00 98 1013.2
20260906071059 71 0 0.0 0.0 0.00 0.00 0.00 98 1013.6
20260906070559 71 0 0.0 0.0 0.00 0.00 0.00 98 1013.3
20260906070109 71 0 0.0 0.0 0.00 0.00 0.00 98 1013.2
20260906065602 71 0 0.0 0.0 0.00 0.00 0.00 98 1013.2
20260906065058 71 0 0.0 0.0 0.00 0.00 0.00 98 1013.3
20260906064607 71 0 0.0 0.0 0.00 0.00 0.00 98 1013.3
20260906064058 71 0 0.0 0.0 0.00 0.00 0.00 98 1013.5
20260906063558 71 0 0.0 0.0 0.00 0.00 0.00 98 1013.6
20260906063102 71 0 0.0 0.0 0.00 0.00 0.00 98 1013.7
20260906062559 71 0 0.0 0.0 0.00 0.00 0.00 98 1013.7
20260906062100 71 0 0.0 0.0 0.00 0.00 0.00 97 1013.8
20260906061607 71 0 0.0 0.0 0.00 0.00 0.00 97 1013.7
20260906061058 71 0 0.0 0.0 0.00 0.00 0.00 97 1013.6
20260906060558 71 0 0.0 0.0 0.00 0.00 0.00 97 1013.6
20260906060108 71 0 0.0 0.0 0.00 0.00 0.00 97 1013.5
20260906055558 71 0 0.0 0.0 0.00 0.00 0.00 97 1013.5
20260906055058 71 0 0.0 0.0 0.00 0.00 0.00 97 1013.5
20260906054605 71 0 0.0 0.0 0.00 0.00 0.00 97 1013.7
20260906054102 71 0 0.0 0.0 0.00 0.00 0.00 97 1013.6
20260906053559 71 0 0.0 0.0 0.00 0.00 0.00 97 1013.7
20260906053105 71 0 0.0 0.0 0.00 0.00 0.00 97 1013.6
20260906052559 71 0 0.0 0.0 0.00 0.00 0.00 97 1013.5
20260906052101 71 0 0.0 0.0 0.00 0.00 0.00 97 1013.5
20260906051604 71 0 0.0 0.0 0.00 0.00 0.00 97 1013.5
20260906051059 71 0 0.0 0.0 0.00 0.00 0.00 97 1013.6
20260906050557 71 0 0.0 0.0 0.00 0.00 0.00 97 1013.8
20260906050105 72 0 0.0 0.0 0.00 0.00 0.00 97 1013.8
20260906045558 72 0 0.0 0.0 0.00 0.00 0.00 97 1014.0
20260906045058 72 0 0.0 0.0 0.00 0.00 0.00 97 1014.0
20260906044603 72 0 0.0 0.0 0.00 0.00 0.00 97 1014.0
20260906044059 72 0 0.0 0.0 0.00 0.00 0.00 96 1014.2
20260906043558 72 0 0.0 0.0 0.00 0.00 0.00 96 1014.1
20260906043103 72 0 0.0 0.0 0.00 0.00 0.00 97 1014.0
20260906042558 72 0 0.0 0.0 0.00 0.00 0.00 97 1014.0
20260906042059 72 0 0.0 0.0 0.00 0.00 0.00 96 1014.1
20260906041600 72 0 0.0 0.0 0.00 0.00 0.00 96 1014.1
20260906041058 72 0 0.0 0.0 0.00 0.00 0.00 96 1014.1
20260906040558 72 0 0.0 0.0 0.00 0.00 0.00 96 1014.1
20260906040104 72 0 0.0 0.0 0.00 0.00 0.00 96 1014.1
20260906035558 72 0 0.0 0.0 0.00 0.00 0.00 96 1014.1
20260906035058 72 0 0.0 0.0 0.00 0.00 0.00 96 1014.1
20260906034606 72 0 0.0 0.0 0.00 0.00 0.00 96 1014.1
20260906034058 73 0 0.0 0.0 0.00 0.00 0.00 96 1014.3
20260906033603 73 0 0.0 0.0 0.00 0.00 0.00 96 1014.3
20260906033108 73 0 0.0 0.0 0.00 0.00 0.00 96 1014.3
20260906032559 73 0 0.0 0.0 0.00 0.00 0.00 95 1014.2
20260906032058 73 0 0.0 0.0 0.00 0.00 0.00 95 1014.2
20260906031602 73 0 0.0 0.0 0.00 0.00 0.00 95 1014.3
20260906031059 73 0 0.0 0.0 0.00 0.00 0.00 95 1014.2
20260906030558 73 0 0.0 0.0 0.00 0.00 0.00 95 1014.2
20260906025558 73 0 0.0 0.0 0.00 0.00 0.00 95 1014.0
20260906025058 73 0 0.0 0.0 0.00 0.00 0.00 95 1014.1
20260906024608 73 0 0.0 0.0 0.00 0.00 0.00 95 1014.1
20260906024058 73 0 0.0 0.0 0.00 0.00 0.00 95 1013.8
20260906023558 73 0 0.0 0.0 0.00 0.00 0.00 95 1013.8
20260906023102 73 0 0.0 0.0 0.00 0.00 0.00 94 1013.8
20260906022558 74 0 0.0 0.0 0.00 0.00 0.00 94 1013.9
20260906022058 74 0 0.0 0.0 0.00 0.00 0.00 94 1014.0
20260906021603 74 0 0.0 0.0 0.00 0.00 0.00 94 1013.9
20260906021059 74 0 0.0 0.0 0.00 0.00 0.00 94 1013.9
20260906020558 74 0 0.0 0.0 0.00 0.00 0.00 94 1013.8
20260906020108 74 0 0.0 0.0 0.00 0.00 0.00 93 1013.7
20260906015558 74 0 0.0 0.0 0.00 0.00 0.00 93 1013.7
20260906015058 74 0 0.0 0.0 0.00 0.00 0.00 93 1013.7
20260906014611 74 0 0.0 0.0 0.00 0.00 0.00 93 1013.5
20260906014059 74 0 0.0 0.0 0.00 0.00 0.00 93 1013.5
20260906013558 75 0 0.0 0.0 0.00 0.00 0.00 93 1013.4
20260906013103 75 0 0.0 0.0 0.00 0.00 0.00 92 1013.2
20260906012558 75 0 0.0 0.0 0.00 0.00 0.00 92 1013.2
20260906012101 75 0 0.0 0.0 0.00 0.00 0.00 93 1013.1
20260906011615 75 0 0.0 0.0 0.00 0.00 0.00 92 1013.0
20260906011058 75 0 0.0 0.0 0.00 0.00 0.00 92 1013.0
20260906010558 76 0 0.0 0.0 0.00 0.00 0.00 92 1013.0
20260906010108 76 0 0.0 0.0 0.00 0.00 0.00 91 1013.0
20260906005600 76 0 0.0 0.0 0.00 0.00 0.00 92 1012.8
20260906005058 76 0 0.0 0.0 0.00 0.00 0.00 91 1012.9
20260906004601 76 0 0.0 0.0 0.00 0.00 0.00 91 1012.9
20260906004057 77 0 0.0 0.0 0.00 0.00 0.00 91 1012.9
20260906003558 77 0 0.0 0.0 0.00 0.00 0.00 91 1012.8
20260906003111 77 0 0.0 0.0 0.00 0.00 0.00 90 1012.8
20260906002557 77 0 0.0 0.0 0.00 0.00 0.00 90 1012.8
20260906002101 78 0 0.0 0.0 0.00 0.00 0.00 90 1012.7
20260906001604 78 0 0.0 0.0 0.00 0.00 0.00 88 1012.5
20260906001101 79 0 0.0 0.0 0.00 0.00 0.00 89 1012.6
20260906000558 79 0 0.0 0.0 0.00 0.00 0.00 89 1012.6
20260906000105 79 0 0.0 0.0 0.00 0.00 0.00 87 1012.8
20260905235558 79 0 0.0 0.0 0.00 0.00 0.00 87 1012.8
20260905235059 80 0 0.0 0.0 0.00 0.00 0.00 87 1012.8
20260905234609 80 0 0.0 0.0 0.00 0.00 0.00 87 1013.0
20260905234058 80 0 0.0 0.0 0.00 0.00 0.00 86 1013.0
20260905233558 80 0 0.0 0.0 0.00 0.00 0.00 85 1013.0
20260905233132 81 0 0.0 0.0 0.00 0.00 0.00 85 1013.1
20260905232558 81 0 0.0 0.0 0.00 0.00 0.00 84 1013.0
20260905232058 81 0 0.0 0.0 0.00 0.00 0.00 84 1012.9
20260905231602 81 0 0.0 0.0 0.00 0.00 0.00 83 1012.7
20260905231058 82 0 0.0 0.0 0.00 0.00 0.00 82 1012.6
20260905230601 82 0 0.0 0.0 0.00 0.00 0.00 81 1012.5
20260905230107 83 0 0.0 0.0 0.00 0.00 0.00 81 1012.4
20260905225557 83 0 0.0 0.0 0.00 0.00 0.00 82 1012.5
20260905225058 83 0 0.0 0.0 0.00 0.00 0.00 81 1012.4
20260905224625 84 0 0.0 0.0 0.00 0.00 0.00 83 1012.3
20260905224058 84 0 0.0 0.0 0.00 0.00 0.00 83 1012.3
20260905223557 84 0 0.0 0.0 0.00 0.00 0.00 82 1012.5
20260905223107 85 0 0.0 0.0 0.00 0.00 0.00 82 1012.5
20260905222601 85 0 0.0 0.0 0.00 0.00 0.00 81 1012.5
20260905222058 85 0 0.0 0.0 0.00 0.00 0.00 80 1012.5
20260905221611 86 0 0.0 0.0 0.00 0.00 0.00 78 1012.5
20260905221058 86 0 0.0 0.0 0.00 0.00 0.00 78 1012.8
20260905220558 87 0 0.0 0.0 0.00 0.00 0.00 77 1013.1
20260905220107 87 0 0.0 0.0 0.00 0.00 0.00 74 1013.1
20260905215558 87 0 0.0 0.0 0.00 0.00 0.00 77 1013.1
20260905215058 87 0 0.0 0.0 0.00 0.00 0.00 76 1013.1
20260905214605 87 0 0.0 0.0 0.00 0.00 0.00 75 1013.2
20260905214058 87 0 0.0 0.0 0.00 0.00 0.00 73 1013.1
20260905213558 87 0 0.0 0.0 0.00 0.00 0.00 75 1013.2
20260905213108 86 0 0.0 0.0 0.00 0.00 0.00 77 1013.1
20260905212558 87 0 0.0 0.0 0.00 0.00 0.00 77 1013.3
20260905212058 87 0 0.0 0.0 0.00 0.00 0.00 76 1013.2
20260905211604 86 0 0.0 0.0 0.00 0.00 0.00 73 1013.0
20260905211058 86 0 0.0 0.0 0.00 0.00 0.00 74 1012.9
20260905210558 86 0 0.0 0.0 0.00 0.00 0.00 74 1013.1
20260905210108 86 0 0.0 0.0 0.00 0.00 0.00 73 1013.0